Regional Weather Roundup
Issued by NWS

Home | Current Version | Previous Version | Text Only | Print | Product List | Glossary Off
Versions: 1 2 3 4 5 6 7 8 9 10 11 12 13 14 15 16 17 18 19 20 21 22 23 24 25 26 27 28 29 30 31 32 33 34 35 36 37 38 39 40 41 42 43 44 45 46 47 48 49 50

474
ASUS43 KMKX 211620
RWRWI

WISCONSIN REGIONAL WEATHER ROUNDUP
NATIONAL WEATHER SERVICE MILWAUKEE/SULLIVAN WI
1100 AM CDT MON MAY 21 2018

NOTE: "FAIR" INDICATES FEW OR NO CLOUDS BELOW 12,000 FEET WITH NO
SIGNIFICANT WEATHER AND/OR OBSTRUCTIONS TO VISIBILITY.

WIZ001-002-006>008-014>016-023>028-211700-
NORTHWEST WISCONSIN

CITY           SKY/WX    TMP DP  RH WIND       PRES   REMARKS
SUPERIOR ARPT  FAIR      61  38  43 E6        30.12F
ASHLAND        FAIR      69  39  33 NE5       30.13F
HAYWARD        FAIR      66  33  29 E8        30.13F
SIREN          CLOUDY    65  31  28 E10       30.11F
CUMBERLAND     CLOUDY    61  18  18 SE7       30.12S
RICE LAKE      FAIR      65  20  17 SE10      30.14S
CHETEK         PTSUNNY   62  31  32 E8G16     30.13S
LADYSMITH      CLOUDY    64  30  27 SE9       30.15S
EAU CLAIRE     CLOUDY    57  38  48 E9        30.12S
MENOMONIE      CLOUDY    61  31  31 E9        30.12S
NEW RICHMOND   CLOUDY    62  33  32 SE9       30.10F
OSCEOLA        CLOUDY    63  35  35 E8        30.13S
$$

WIZ003>005-009-010-017-018-211700-
NORTH CENTRAL WISCONSIN

CITY           SKY/WX    TMP DP  RH WIND       PRES   REMARKS
MANITOWISH WTR FAIR      67  27  22 SE9       30.14F
ARBOR VITAE    FAIR      65  26  23 SE8       30.15F
WOODRUFF       FAIR      65  26  23 SE8       30.15F
RHINELANDER    FAIR      67  31  26 SE8       30.17S
EAGLE RIVER    FAIR      67  19  15 E12       30.16S
LAND O LAKES   FAIR      68  19  15 SE13      30.18F
PHILLIPS       FAIR      66  24  20 SE8       30.13F
TOMAHAWK       FAIR      64  39  39 SE6       30.16F
MEDFORD        FAIR      58  44  57 SE10      30.14F
MERRILL        FAIR      64  45  48 SE12      30.16F HAZE
$$

WIZ029-030-035-036-043>047-211700-
CENTRAL WISCONSIN

CITY           SKY/WX    TMP DP  RH WIND       PRES   REMARKS
WAUSAU         CLOUDY    63  44  50 SE16G25   30.14F
MOSINEE        CLOUDY    57  43  58 SE12G20   30.16F
MARSHFIELD     CLOUDY    57  44  62 E8        30.13F
STEVENS POINT  CLOUDY    58  44  59 E10G18    30.15F
WAUPACA        PTSUNNY   61  48  61 E9        30.16F
WAUTOMA        CLOUDY    56  50  80 VRB7      30.14F
WISC RAPIDS    CLOUDY    60  47  61 SE10      30.14S
CAMP DOUGLAS   NOT AVBL
$$

WIZ011>013-019>022-031-037>040-048>050-211700-
NORTHEAST WISCONSIN

CITY           SKY/WX    TMP DP  RH WIND       PRES   REMARKS
ANTIGO         CLOUDY    63  43  48 SE14      30.17F
SHAWANO        CLOUDY    63  46  54 E5        30.17F
OCONTO         FAIR      56  42  57 E3        30.19F
STURGEON BAY   FAIR      55  47  74 SE5       30.21F
GREEN BAY      PTSUNNY   61  50  67 E10       30.19F
MANITOWOC      FAIR      52  48  86 E6        30.19F
APPLETON       CLOUDY    57  46  67 E9        30.16F
CLINTONVILLE   CLOUDY    59  44  58 E8        30.16F
OSHKOSH        LGT RAIN  55  52  89 E13       30.13F
$$

WIZ032>034-041-042-053>061-211700-
SOUTHWEST WISCONSIN

CITY           SKY/WX    TMP DP  RH WIND       PRES   REMARKS
LA CROSSE      RAIN      53  50  89 CALM      30.09F FOG
SPARTA         RAIN      51  49  94 NE3       30.11F
VIROQUA        CLOUDY    51  50  96 E8        30.09S
BOSCOBEL       LGT RAIN  54  51  90 E6        30.09S FOG
PRAIRIE DU CHI RAIN      53  51  94 E7        30.07S
PLATTEVILLE    CLOUDY    55  55 100 E10       30.07F
$$

WIZ056-057-062-063-064-067-068-211700-
SOUTH CENTRAL WISCONSIN

CITY           SKY/WX    TMP DP  RH WIND       PRES   REMARKS
REEDSBURG      DRIZZLE   54  51  90 E8        30.10F
BARABOO/DELLS  LGT RAIN  54  50  88 E8        30.11S
LONE ROCK      LGT RAIN  55  54  96 E10       30.09F
MINERAL POINT  RAIN      54  54 100 E8        30.07F
MADISON        LGT RAIN  55  53  93 E8        30.09F
MIDDLETON      CLOUDY    55  54  94 E6        30.10F
WATERTOWN      DRIZZLE   55  55 100 E9        30.11S
MONROE         CLOUDY    54  54 100 E6        30.07F FOG
JANESVILLE     CLOUDY    57  57 100 E6        30.10F
$$

WIZ051-052-058>065-066-070>072-211700-
SOUTHEAST WISCONSIN

CITY           SKY/WX    TMP DP  RH WIND       PRES   REMARKS
MILWAUKEE      LGT RAIN  52  51  97 E12       30.13F VSB 1/2
WAUKESHA       LGT RAIN  50  50 100 E7        30.14F
MILWAUKEE/TIMM LGT RAIN  50  46  87 NE6       30.14F FOG
RACINE         LGT RAIN  52  52 100 E10       30.15F VSB 1/2
BURLINGTON     LGT RAIN  54  53  95 E5        30.12S
KENOSHA        HVY RAIN  55  54  96 E10       30.13S FOG
FOND DU LAC    LGT RAIN  54  52  93 E8        30.13F
SHEBOYGAN      LGT RAIN  52  50  93 E8        30.17S FOG
WEST BEND      LGT RAIN  52  52 100 E9        30.15F
JUNEAU         LGT RAIN  54  53  97 E9        30.13S
$$

LSZ147-162-211700-
LAKE SUPERIOR

STATION/POSITION TIME  TEMP    WIND        PRES    WAVE
                       AIR SEA DIR/SP/G            HT/PER
                 (UTC) (F)     (DEG/KT/KT) (MB)    (FT/S)
W MID LAKE BUOY  1550   41 36  170/  6/  6 1021.6F   0
DEVILS ISLAND    1600   50      70/  2/  3 1021.0F
SAXON HARBOR     1540   51      30/  3/  3 1020.3F
$$

LMZ867-665-643>646-211700-
LAKE MICHIGAN

STATION/POSITION TIME  TEMP    WIND        PRES    WAVE
                       AIR SEA DIR/SP/G            HT/PER
                 (UTC) (F)     (DEG/KT/KT) (MB)    (FT/S)
NORTHPORT PIER   1540   46                 1023.4S
KEWAUNEE LAKESHO 1554   48      30/  7/  8 1021.8F
SHEBOYGAN LAKESH 1600   47      20/  5/  6 1021.8F
PORT WASHINGTON  1540   48      50/  7/  9 1022.0F
MILWAUKEE LAKESH 1600   47      70/  7/  8   N/A
KENOSHA   LAKESH 1600   49                 1020.7
$$

TC  - TEMPERATURE IN CELSIUS
VSB - VISIBILITY IN STATUTE MILES
WCI - WIND CHILL INDEX
HX  - HEAT INDEX





USA.gov is the U.S. government's official web portal to all federal, state and local government web resources and services.